STRIX-3

Satellite information

Favourite Embed

Satellite Type and Status

PAYLOADIN ORBIT

Key statistics

Satellite STRIX-3 at a glance.

Uptime

482

Days in orbit

Revolutions

≈ 15.1

Per day

Orbit

SSO

Sun Synchronous Orbit

Inclination

97.6

Latest

Satellite identification and parameters

Extended collection of information and parameters for STRIX-3.

Object identification

Identified? True

Debris? False

Object name: STRIX-3

International designator: 2024-047A

Object number (NORAD): 59224

Object ID (CCSDS): 59224

Country: JAPAN (JPN)

Current information (Y/N): Y

RCS size: MEDIUM

Orbital parameters

Period: 95.217 minutes

Inclination: 97.621 deg

SMA: 6907.22 km

Apoapsis: 539.832 km

Periapsis: 518.338 km

RAAN: 155.8757 deg

Eccentricy: 0.0015559

Argument of periapsis: 169.2984 deg

Mean anomaly: 190.8581 deg

Mean motion: 15.12334326 rev/day

Mean motion (dot): 0.00005338 rev/day2

B* drag term: 0.00031097 1/REarth

Two-line elements (TLE)

Creation date: July 6, 2025, 6:05 p.m.

Reference frame: TEME

Reference center: EARTH

Epoch: July 6, 2025, 1:17 p.m. UTC

TLE line 0: 0 STRIX-3

TLE line 1: 1 59224U 24047A 25187.55362120 .00005338 00000-0 31097-3 0 9998

TLE line 2: 2 59224 97.6210 155.8757 0015559 169.2984 190.8581 15.12334326 72383

Live tracking on map

Real-time ground track for satellite STRIX-3.

In-orbit conjunctions

There are no conjunctions computed for STRIX-3, at the moment. Check back to stay up to date, as we update our databases every day.

Go to all conjunctions

Associated space launch

StriX-3 is a synthetic aperture radar satellite for Japanese Earth imaging company Synspective. It can gather high resolution Earth observation data regardless of conditions or daylight, offering a resilient and effective resource for the purposes of urban development, infrastructure monitoring, and disaster response.

STRIX-3 was lifted into orbit during the mission ‘Electron | Owl Night Long (StriX-3)’, on board a Electron space rocket.

The launch took place on March 12, 2024, 3:03 p.m. from Rocket Lab Launch Complex 1B.

For more information about the launch, click the button.

Launch to space Electron | Owl Night Long (StriX-3)
Electron | Owl Night Long (StriX-3)

Agency: Synspective

Status: Launch Successful

Launch date: March 12, 2024, 3:03 p.m. UTC

Rocket: Electron

Launch pad: Rocket Lab Launch Complex 1B

Location: Rocket Lab Launch Complex 1, Mahia Peninsula, New Zealand

...

Latest news about this satellite

News about space launch
Rocket Lab launches Synspective radar imaging satellite

Rocket Lab launched a radar imaging satellite for Japanese company Synspective March 12, the latest in a series of launches for that company.

News about space launch
Rocket Lab prepares for the ‘Owl Night Long’ mission

Rocket Lab is currently targeting no earlier than Wednesday, March 13th to launch Synspectives’ Strix-3 satellite to a Sun-synchronous orbit from Pad...


Newsletter sign-up

Weekly statistics, charts and insights to help you stay on top of the space industry.